Weather History for Rolla, MO

Change the Weather History Date:

Friday, November 30, 2012

  Actual Average Record
Temperature  
Mean Temperature 54 °F 39 °F  
Max Temperature 65 °F 48 °F 71 °F (1973)
Min Temperature 43 °F 29 °F 5 °F (1964)
Degree Days  
Heating Degree Days 11 26  
Month to date heating degree days 598 597  
Since 1 July heating degree days 1063 947  
Cooling Degree Days 0 0  
Month to date cooling degree days 2 3  
Year to date cooling degree days 1693 1246  
Growing Degree Days 4 (Base 50)    
Moisture  
Dew Point 39 °F    
Average Humidity 60    
Maximum Humidity 80    
Minimum Humidity 48    
Precipitation  
Precipitation 0.00 in 0.12 in 2.24 in (2006)
Month to date precipitation 1.26 3.87  
Year to date precipitation 30.92 40.97  
Sea Level Pressure  
Sea Level Pressure 30.08 in    
Wind  
Wind Speed 10 mph (SSW)    
Max Wind Speed 17 mph    
Max Gust Speed -    
Visibility 10 miles    
Events      
T = Trace of Precipitation, MM = Missing Value Source: NWS Daily Summary

Daily Weather History Graph

Daily Weather History Graph

Search for Another Location

Airport:

Trip Planner

Search our weather history database for the weather conditions in past years. The results will help you decide how hot, cold, wet, or windy it might be!

Date:

Astronomy

Nov. 30, 2012 Rise Set
Actual Time 7:04 AM CST 4:47 PM CST
Civil Twilight 6:35 AM CST 5:16 PM CST
Nautical Twilight 6:02 AM CST 5:49 PM CST
Astronomical Twilight 5:30 AM CST 6:21 PM CST
Moon 6:42 PM CST (11/30) 8:36 AM CST (11/30)
Length of Visible Light 10h 41m
Length of Day
9h 43m
Waning Gibbous, 96% of the Moon is Illuminated
Nov 30
Waning Gibbous
Dec 6
Last Quarter
Dec 13
New
Dec 19
First Quarter
Dec 28
Full

Hourly Weather History & Observations

Time (CST) Temp. Windchill Dew Point Humidity Pressure Visibility Wind Dir Wind Speed Gust Speed Precip Events Conditions
12:53 AM 45.0 °F 38.5 °F 30.9 °F 58% 30.10 in 10.0 mi South 13.8 mph - N/A   Clear
1:53 AM 45.0 °F 38.2 °F 30.9 °F 58% 30.10 in 10.0 mi South 15.0 mph - N/A   Clear
2:53 AM 45.0 °F 38.2 °F 32.0 °F 60% 30.10 in 10.0 mi South 15.0 mph - N/A   Clear
3:53 AM 45.0 °F 38.5 °F 30.9 °F 58% 30.08 in 10.0 mi South 13.8 mph - N/A   Clear
4:53 AM 45.0 °F 38.9 °F 30.9 °F 58% 30.09 in 10.0 mi SSW 12.7 mph - N/A   Clear
5:53 AM 44.1 °F 38.1 °F 30.9 °F 60% 30.09 in 10.0 mi South 11.5 mph - N/A   Clear
6:53 AM 44.1 °F 38.1 °F 32.0 °F 63% 30.10 in 10.0 mi SSW 11.5 mph - N/A   Clear
7:53 AM 45.0 °F 38.9 °F 32.0 °F 60% 30.11 in 10.0 mi SSW 12.7 mph - N/A   Clear
8:53 AM 50.0 °F - 34.0 °F 54% 30.11 in 10.0 mi SSW 12.7 mph - N/A   Clear
9:53 AM 54.0 °F - 37.0 °F 53% 30.12 in 10.0 mi SW 11.5 mph - N/A   Clear
10:53 AM 57.9 °F - 39.9 °F 51% 30.10 in 10.0 mi SW 10.4 mph - N/A   Clear
11:53 AM 61.0 °F - 42.1 °F 50% 30.08 in 10.0 mi SW 9.2 mph - N/A   Clear
12:53 PM 63.0 °F - 44.1 °F 50% 30.06 in 10.0 mi WSW 6.9 mph - N/A   Clear
1:53 PM 64.9 °F - 45.0 °F 48% 30.05 in 10.0 mi SSW 8.1 mph - N/A   Clear
2:53 PM 64.9 °F - 45.0 °F 48% 30.04 in 10.0 mi SSW 5.8 mph - N/A   Clear
3:53 PM 64.0 °F - 46.0 °F 52% 30.05 in 10.0 mi SSW 6.9 mph - N/A   Clear
4:53 PM 55.0 °F - 44.1 °F 67% 30.06 in 10.0 mi SSE 3.5 mph - N/A   Clear
5:53 PM 55.9 °F - 44.1 °F 64% 30.06 in 10.0 mi South 8.1 mph - N/A   Clear
6:53 PM 55.0 °F - 45.0 °F 69% 30.07 in 10.0 mi South 9.2 mph - N/A   Clear
7:53 PM 55.9 °F - 45.0 °F 67% 30.07 in 10.0 mi South 10.4 mph - N/A   Clear
8:53 PM 54.0 °F - 44.1 °F 69% 30.07 in 10.0 mi South 9.2 mph - N/A   Clear
9:53 PM 54.0 °F - 44.1 °F 69% 30.07 in 10.0 mi South 11.5 mph - N/A   Clear
10:53 PM 52.0 °F - 44.1 °F 74% 30.07 in 10.0 mi South 9.2 mph - N/A   Clear
11:53 PM 51.1 °F - 45.0 °F 80% 30.07 in 10.0 mi South 11.5 mph - N/A   Clear